Tiempo atmosférico en la estación meteorológica de La Victoria de Acentejo, Santa Cruz de Tenerife (567 m.)



Fecha
DESCASC
Temp. máxima en grados centígrados (hora)
DESCASC
Temp. mínima en grados centígrados (hora)
DESCASC
Temp. media en grados centígrados
DESCASC
Racha de viento máxima en m/sg (hora)
DESCASC
Velocidad máxima media en intervalos de 10 minutos(hora)
DESCASC
Precipitaciones diarias en mm
DESCASC
Precipitaciones de 00:00 a 06:00 en mm
DESCASC
Precipitaciones de 06:00 a 12:00 en mm
DESCASC
Precipitaciones de 12:00 a 18:00 en mm
DESCASC
Precipitaciones de 18:00 a 24:00 en mm
DESCASC
19-09-2019 22.8 (17:40) 13.8 (01:30) 18.3 6.67 (16:30) 4.17 (04:40) 0 0 0 0 0
18-09-2019 22.3 (16:30) 13.9 (06:40) 18.1 7.22 (17:10) 3.89 (16:00) 0 0 0 0 0
17-09-2019 22.3 (15:10) 14.7 (00:00) 18.5 5.83 (14:10) 3.61 (15:00) 0 0 0 0 0
16-09-2019 26.6 (14:50) 17.9 (00:00) 22.3 11.94 (07:00) 8.61 (07:40) 0.2 0.2 0 0 0
15-09-2019 24.8 (15:50) 13.4 (00:00) 19.1 5 (13:40) 3.06 (00:30) 0 0 0 0 0
14-09-2019 22.6 (14:20) 13.5 (00:00) 18.1 5.83 (00:10) 4.17 (01:40) 0 0 0 0 0
13-09-2019 22.3 (16:30) 14.2 (00:00) 18.2 7.5 (13:00) 4.44 (23:30) 0 0 0 0 0
12-09-2019 21.8 (15:40) 14.2 (00:00) 18 7.5 (12:50) 4.72 (13:10) 0 0 0 0 0
11-09-2019 21.6 (14:10) 14.8 (00:00) 18.2 9.44 (14:50) 5.28 (15:10) 0 0 0 0 0
10-09-2019 23 (14:00) 13.4 (04:20) 18.2 7.22 (18:40) 4.44 (17:50) 0 0 0 0 0
09-09-2019 23.4 (14:50) 14.3 (06:10) 18.8 6.39 (18:00) 3.89 (15:50) 0 0 0 0 0
08-09-2019 21 (13:20) 14.9 (00:00) 17.9 5.83 (02:10) 4.72 (05:30) 0 0 0 0 0
07-09-2019 22.5 (14:40) 15.6 (00:00) 19.1 6.11 (15:20) 3.89 (03:20) 0 0 0 0 0
06-09-2019 19.5 (12:40) 15.8 (00:00) 17.7 5.83 (00:10) 3.61 (00:10) 2.2 0 0 1.2 1
05-09-2019 22.5 (15:10) 14.9 (00:00) 18.7 5.56 (15:30) 4.17 (07:00) 0 0 0 0 0
04-09-2019 22.9 (15:00) 14.4 (00:00) 18.6 7.5 (15:10) 4.17 (06:00) 0 0 0 0 0
03-09-2019 21.6 (18:30) 14 (00:00) 17.8 5.83 (14:30) 3.89 (23:10) 0 0 0 0 0
02-09-2019 21.9 (14:30) 15.7 (00:00) 18.8 7.78 (15:10) 4.72 (14:40) 0 0 0 0 0
01-09-2019 22.2 (14:20) 14.7 (00:00) 18.5 8.33 (14:10) 5 (15:10) 0 0 0 0 0
31-08-2019 22.3 (15:50) 14.9 (00:00) 18.6 6.67 (11:20) 4.72 (11:20) 0 0 0 0 0
30-08-2019 22.9 (16:10) 14.3 (00:00) 18.6 6.39 (15:50) 3.61 (15:50) 0 0 0 0 0
29-08-2019 20.1 (10:40) 14.1 (00:00) 17.1 6.11 (01:10) 3.61 (14:30) 0 0 0 0 0
28-08-2019 22.4 (15:40) 14.7 (00:00) 18.5 6.94 (14:10) 3.61 (14:50) 0 0 0 0 0
27-08-2019 23.7 (17:30) 14.4 (00:00) 19.1 6.11 (14:30) 3.61 (14:30) 0 0 0 0 0
26-08-2019 24.1 (17:10) 16.7 (00:00) 20.4 4.72 (17:30) 2.78 (17:20) 0 0 0 0 0
25-08-2019 26.9 (15:40) 17.5 (00:00) 22.2 5.28 (16:20) 3.33 (16:20) 0 0 0 0 0
24-08-2019 26.3 (16:10) 16.2 (00:00) 21.3 3.89 (05:30) 2.22 (14:50) 0 0 0 0 0
23-08-2019 23 (15:40) 15.5 (00:00) 19.3 6.39 (13:40) 3.61 (13:40) 0 0 0 0 0

Gráficas

Temp. máximas Temp. mínimas Temp. medias Precipitaciones Rachas de viento máximas Velocidades máximas media en intervalos de 10 minutos

Datos horarios

Fecha y hora oficial Temperatura (ºC) Velocidad del viento (km/h) Dirección del viento Racha (km/h) Dirección de racha Precipitación (mm) Presión (hPa) Tendencia (hPa) Humedad (%)
2019-09-21 23:00:00 16.3 6 Sudeste 13 Sur 0 -- -- 79
2019-09-21 22:00:00 16.8 10 Sudeste 12 Sudeste 0 -- -- 87
2019-09-21 21:00:00 19.1 3 Noroeste 7 Noroeste 0 -- -- 91
2019-09-21 20:00:00 19.6 5 Noroeste 12 Noroeste 0 -- -- 88
2019-09-21 19:00:00 21 6 Noroeste 16 Noroeste 0 -- -- 82
2019-09-21 18:00:00 22.8 9 Noroeste 18 Noroeste 0 -- -- 76
2019-09-21 17:00:00 23.2 10 Noroeste 18 Noroeste 0 -- -- 70
2019-09-21 16:00:00 22.2 9 Noroeste 19 Noroeste 0 -- -- 70
2019-09-21 15:00:00 23.2 9 Noroeste 18 Noroeste 0 -- -- 67
2019-09-21 14:00:00 22.7 10 Norte 19 Noroeste 0 -- -- 63
2019-09-21 13:00:00 23.1 8 Noroeste 17 Oeste 0 -- -- 55
2019-09-21 12:00:00 22.2 9 Noroeste 14 Noroeste 0 -- -- 64
2019-09-21 11:00:00 22.2 5 Noroeste 10 Noroeste 0 -- -- 62
2019-09-21 10:00:00 20.3 3 Sur 14 Sudeste 0 -- -- 65
2019-09-21 09:00:00 14.9 10 Sur 18 Sur 0 -- -- 79
2019-09-21 08:00:00 13.8 11 Sudeste 16 Sudeste 0 -- -- 80
2019-09-21 07:00:00 13.9 13 Sudeste 19 Sudeste 0 -- -- 79
2019-09-21 06:00:00 14.1 13 Sudeste 17 Sudeste 0 -- -- 77
2019-09-21 05:00:00 14.2 13 Sudeste 15 Sudeste 0 -- -- 80
2019-09-21 04:00:00 14 11 Sudeste 15 Sudeste 0 -- -- 77
2019-09-21 03:00:00 14.1 12 Sudeste 15 Sudeste 0 -- -- 78
2019-09-21 02:00:00 14.7 9 Sudeste 15 Sudeste 0 -- -- 76
2019-09-21 01:00:00 14.7 12 Sudeste 14 Sudeste 0 -- -- 80
2019-09-21 00:00:00 14.8 10 Sudeste 13 Sudeste 0 -- -- 85
2019-09-20 23:00:00 15.4 6 Sudeste 15 Sudeste 0 -- -- 85
2019-09-20 22:00:00 15.9 11 Sudeste 13 Sudeste 0 -- -- 86
2019-09-20 21:00:00 17.1 7 Sudeste 9 Sudeste 0 -- -- 91
2019-09-20 20:00:00 19.4 4 Noroeste 13 Norte 0 -- -- 89
2019-09-20 19:00:00 20.1 8 Norte 14 Norte 0 -- -- 85
2019-09-20 18:00:00 20.7 5 Noroeste 15 Norte 0 -- -- 82
2019-09-20 17:00:00 21.5 11 Norte 16 Noroeste 0 -- -- 80
2019-09-20 16:00:00 21 10 Norte 20 Norte 0 -- -- 78
2019-09-20 15:00:00 22.1 11 Norte 20 Norte 0 -- -- 72
2019-09-20 14:00:00 22.1 12 Norte 20 Noroeste 0 -- -- 75
2019-09-20 13:00:00 22 11 Norte 20 Norte 0 -- -- 69
2019-09-20 12:00:00 21.6 8 Noroeste 14 Norte 0 -- -- 77
2019-09-20 11:00:00 20.7 4 Norte 12 Noroeste 0 -- -- 78
2019-09-20 10:00:00 19.4 2 Nordeste 9 Sudeste 0 -- -- 66
2019-09-20 09:00:00 16 8 Sudeste 13 Sur 0 -- -- 76
2019-09-20 08:00:00 15.9 5 Este 19 Sudeste 0 -- -- 77
2019-09-20 07:00:00 15 10 Sudeste 16 Sudeste 0 -- -- 85
2019-09-20 06:00:00 14 8 Sudeste 12 Sudeste 0 -- -- 85
2019-09-20 05:00:00 14.5 9 Sur 13 Sudeste 0 -- -- 82
2019-09-20 04:00:00 14.8 9 Sudeste 14 Este 0 -- -- 83
2019-09-20 03:00:00 14.9 6 Sudeste 13 Sudeste 0 -- -- 78
2019-09-20 02:00:00 15 10 Sudeste 14 Este 0 -- -- 78
2019-09-20 01:00:00 16.6 12 Sudeste 19 Sudeste 0 -- -- 78
2019-09-20 00:00:00 14.2 9 Sudeste 13 Sudeste 0 -- -- 73
2019-09-19 23:00:00 14.4 8 Sudeste 14 Sudeste 0 -- -- 73
2019-09-19 22:00:00 14.7 12 Sudeste 15 Sudeste 0 -- -- 73
2019-09-19 21:00:00 16.2 6 Sudeste 9 Sudeste 0 -- -- 92
2019-09-19 20:00:00 18.6 6 Nordeste 14 Nordeste 0 -- -- 85
2019-09-19 19:00:00 19.7 9 Nordeste 16 Norte 0 -- -- 84
2019-09-19 18:00:00 21.6 10 Norte 17 Norte 0 -- -- 76
2019-09-19 17:00:00 21.7 12 Noroeste 24 Noroeste 0 -- -- 74
2019-09-19 16:00:00 22.5 10 Noroeste 19 Noroeste 0 -- -- 72
2019-09-19 15:00:00 20.5 9 Norte 17 Noroeste 0 -- -- 78
2019-09-19 14:00:00 20.6 10 Noroeste 22 Nordeste 0 -- -- 78
2019-09-19 13:00:00 20.1 13 Norte 23 Norte 0 -- -- 81
2019-09-19 12:00:00 19.7 11 Norte 18 Nordeste 0 -- -- 84
2019-09-19 11:00:00 20.4 10 Norte 16 Norte 0 -- -- 79
2019-09-19 10:00:00 19.4 8 Este 16 Nordeste 0 -- -- 75
2019-09-19 09:00:00 15 9 Sudeste 17 Sudeste 0 -- -- 75
2019-09-19 08:00:00 14.5 12 Sudeste 17 Sudeste 0 -- -- 74
2019-09-19 07:00:00 14.5 10 Sudeste 18 Sudeste 0 -- -- 75
2019-09-19 06:00:00 14.1 14 Sudeste 21 Sudeste 0 -- -- 74
2019-09-19 05:00:00 14.8 10 Sudeste 19 Sudeste 0 -- -- 75
2019-09-19 04:00:00 14.4 11 Sudeste 18 Sudeste 0 -- -- 82
2019-09-19 03:00:00 14.8 8 Sudeste 14 Este 0 -- -- 87
2019-09-19 02:00:00 14.9 9 Sudeste 14 Sudeste 0 -- -- 81
2019-09-19 01:00:00 14 10 Sudeste 12 Sudeste 0 -- -- 73
2019-09-19 00:00:00 14.4 8 Sur 14 Sur 0 -- -- 84
2019-09-18 23:00:00 15.1 8 Sur 14 Sur 0 -- -- 81
2019-09-18 22:00:00 16.7 10 Sur 14 Sur 0 -- -- 83
2019-09-18 21:00:00 18.4 4 Sur 7 Sur 0 -- -- 87
2019-09-18 20:00:00 18.8 2 Norte 14 Norte 0 -- -- 87
2019-09-18 19:00:00 19.9 9 Norte 17 Nordeste 0 -- -- 83
2019-09-18 18:00:00 21.4 10 Norte 26 Noroeste 0 -- -- 74
2019-09-18 17:00:00 21.8 11 Norte 23 Norte 0 -- -- 75
2019-09-18 16:00:00 21.7 14 Norte 21 Norte 0 -- -- 73
2019-09-18 15:00:00 21.6 9 Norte 21 Norte 0 -- -- 71
2019-09-18 14:00:00 21.9 13 Norte 23 Norte 0 -- -- 69
2019-09-18 13:00:00 21.5 10 Norte 17 Norte 0 -- -- 68
2019-09-18 12:00:00 20.2 9 Norte 20 Nordeste 0 -- -- 76
2019-09-18 11:00:00 19.6 4 Noroeste 12 Noroeste 0 -- -- 78
2019-09-18 10:00:00 19.7 0 Calma 9 Sur 0 -- -- 75
2019-09-18 09:00:00 16 10 Sur 14 Sur 0 -- -- 88
2019-09-18 08:00:00 15.8 9 Sur 15 Sudeste 0 -- -- 90
2019-09-18 07:00:00 14.5 10 Sur 14 Sudeste 0 -- -- 90
2019-09-18 06:00:00 14.2 9 Sudeste 16 Este 0 -- -- 83
2019-09-18 05:00:00 14.9 7 Sudeste 14 Sudeste 0 -- -- 89
2019-09-18 04:00:00 14.4 9 Sudeste 15 Sudeste 0 -- -- 87
2019-09-18 03:00:00 15.7 7 Sur 11 Sudeste 0 -- -- 91
2019-09-18 02:00:00 16.2 6 Sudeste 9 Sudeste 0 -- -- 88
2019-09-18 01:00:00 15.4 7 Sur 9 Sudeste 0 -- -- 89
2019-09-18 00:00:00 14.7 6 Sur 11 Sudeste 0 -- -- 83
2019-09-17 23:00:00 15.6 6 Sudeste 10 Sudeste 0 -- -- 84
2019-09-17 22:00:00 18.1 3 Oeste 9 Oeste 0 -- -- 89
2019-09-17 21:00:00 18.2 5 Nordeste 12 Norte 0 -- -- 91
2019-09-17 20:00:00 18.5 5 Norte 17 Nordeste 0 -- -- 89
2019-09-15 17:00:00 23.7 6 Norte 16 Oeste 0 -- -- 69
2019-09-15 16:00:00 24.6 8 Noroeste 17 Noroeste 0 -- -- 66
2019-09-15 15:00:00 24.2 10 Noroeste 17 Noroeste 0 -- -- 67
2019-09-15 14:00:00 23.7 8 Noroeste 18 Noroeste 0 -- -- 65
2019-09-15 13:00:00 23.2 6 Noroeste 12 Noroeste 0 -- -- 65
2019-09-15 12:00:00 22.1 6 Noroeste 13 Noroeste 0 -- -- 71
2019-09-15 11:00:00 22.2 4 Noroeste 8 Oeste 0 -- -- 66
2019-09-15 10:00:00 20.3 2 Norte 7 Sudeste 0 -- -- 65
2019-09-15 09:00:00 15.9 5 Sudeste 11 Sudeste 0 -- -- 56
2019-09-15 08:00:00 14.3 4 Sudeste 13 Sudeste 0 -- -- 60
2019-09-15 07:00:00 14.9 8 Sudeste 13 Sudeste 0 -- -- 54
2019-09-15 06:00:00 14.5 7 Sudeste 14 Sudeste 0 -- -- 63
2019-09-15 05:00:00 14.1 6 Sudeste 13 Sudeste 0 -- -- 73
2019-09-15 04:00:00 14 6 Sur 12 Sudeste 0 -- -- 67
2019-09-15 03:00:00 13.6 9 Sudeste 12 Sudeste 0 -- -- 70
2019-09-15 02:00:00 14 8 Sudeste 12 Sudeste 0 -- -- 87
2019-09-15 01:00:00 14.2 10 Sudeste 14 Sudeste 0 -- -- 77
2019-09-15 00:00:00 14.9 8 Sur 14 Sudeste 0 -- -- 87
2019-09-14 23:00:00 15.6 9 Sudeste 17 Sudeste 0 -- -- 88
2019-09-14 22:00:00 16.5 13 Sudeste 16 Sudeste 0 -- -- 87
2019-09-14 21:00:00 18.3 0 Calma 8 Oeste 0 -- -- 91
2019-09-14 20:00:00 19.1 5 Norte 18 Norte 0 -- -- 89
2019-09-14 19:00:00 20.5 7 Noroeste 14 Noroeste 0 -- -- 84
2019-09-14 18:00:00 20.6 6 Norte 13 Noroeste 0 -- -- 84
2019-09-14 17:00:00 20.7 7 Noroeste 14 Noroeste 0 -- -- 83
2019-09-14 16:00:00 21.6 7 Noroeste 18 Sudoeste 0 -- -- 79
2019-09-14 15:00:00 22.2 10 Oeste 17 Oeste 0 -- -- 75
2019-09-14 14:00:00 22.4 8 Oeste 18 Noroeste 0 -- -- 75
2019-09-14 13:00:00 22 10 Noroeste 17 Oeste 0 -- -- 74
2019-09-14 12:00:00 21.1 9 Oeste 17 Noroeste 0 -- -- 75
2019-09-14 11:00:00 20.6 4 Oeste 9 Noroeste 0 -- -- 61
2019-09-14 10:00:00 19.4 4 Sudoeste 10 Sur 0 -- -- 61
2019-09-14 09:00:00 14.3 9 Sur 14 Sur 0 -- -- 66
2019-09-14 08:00:00 14.1 8 Sur 15 Sur 0 -- -- 69
2019-09-14 07:00:00 14.6 12 Sur 16 Sur 0 -- -- 73
2019-09-14 06:00:00 14.1 11 Sur 16 Sur 0 -- -- 75
2019-09-14 05:00:00 14 11 Sur 15 Sur 0 -- -- 85
2019-09-14 04:00:00 15 13 Sur 17 Sudeste 0 -- -- 83
2019-09-14 03:00:00 14.7 13 Sudeste 21 Sudeste 0 -- -- 76
2019-09-14 02:00:00 14.7 14 Sudeste 18 Sudeste 0 -- -- 76
2019-09-14 01:00:00 15.2 13 Sudeste 21 Sudeste 0 -- -- 81
2019-09-14 00:00:00 15.6 12 Sudeste 23 Sudeste 0 -- -- 76
2019-09-13 23:00:00 17.1 11 Este 18 Sudeste 0 -- -- 80
2019-09-13 22:00:00 15.8 14 Sudeste 17 Sudeste 0 -- -- 80
2019-09-13 21:00:00 16.7 7 Sudeste 10 Sudeste 0 -- -- 83
2019-09-13 20:00:00 19 5 Nordeste 16 Norte 0 -- -- 84
2019-09-13 19:00:00 20.9 9 Norte 18 Noroeste 0 -- -- 74
2019-09-13 18:00:00 21.3 12 Norte 23 Norte 0 -- -- 72
2019-09-13 17:00:00 21.9 11 Norte 26 Noroeste 0 -- -- 69
2019-09-13 16:00:00 21.5 12 Norte 23 Norte 0 -- -- 75
2019-09-13 15:00:00 20.7 11 Norte 22 Norte 0 -- -- 78
2019-09-13 14:00:00 20.2 13 Norte 24 Nordeste 0 -- -- 82
2019-09-13 13:00:00 21.8 15 Norte 27 Noroeste 0 -- -- 72
2019-09-13 12:00:00 21.4 12 Norte 20 Norte 0 -- -- 70
2019-09-13 11:00:00 19.7 13 Norte 19 Nordeste 0 -- -- 76
2019-09-13 10:00:00 19.7 6 Norte 13 Este 0 -- -- 73
2019-09-13 09:00:00 16.7 12 Sudeste 15 Sudeste 0 -- -- 75
2019-09-13 08:00:00 14.6 5 Sudeste 15 Sudeste 0 -- -- 74
2019-09-13 07:00:00 14.9 5 Sudeste 18 Sudeste 0 -- -- 75
2019-09-13 06:00:00 14.9 12 Sudeste 15 Sudeste 0 -- -- 68
2019-09-13 05:00:00 15 6 Sudeste 14 Sudeste 0 -- -- 68
2019-09-13 04:00:00 15.2 8 Sudeste 13 Sudeste 0 -- -- 66
2019-09-13 03:00:00 15.4 7 Sudeste 19 Sudeste 0 -- -- 66
2019-09-13 02:00:00 15.2 8 Este 15 Sudeste 0 -- -- 72
2019-09-13 01:00:00 14.8 4 Sur 12 Sudeste 0 -- -- 73
2019-09-13 00:00:00 15.1 8 Sudeste 18 Sudeste 0 -- -- 74
2019-09-12 23:00:00 14.2 9 Sudeste 13 Sudeste 0 -- -- 80
2019-09-12 22:00:00 14.7 9 Sudeste 14 Sudeste 0 -- -- 77
2019-09-12 21:00:00 16.1 8 Sudeste 12 Sudeste 0 -- -- 86
2019-09-12 20:00:00 18.5 9 Nordeste 21 Norte 0 -- -- 77
2019-09-12 19:00:00 19.7 9 Norte 21 Norte 0 -- -- 73
2019-09-12 18:00:00 20.8 11 Norte 22 Norte 0 -- -- 71
2019-09-12 17:00:00 21.3 13 Norte 23 Norte 0 -- -- 71
2019-09-12 16:00:00 20.4 15 Norte 26 Norte 0 -- -- 73
2019-09-12 15:00:00 20.7 12 Norte 27 Norte 0 -- -- 71
2019-09-12 14:00:00 20.7 15 Norte 27 Norte 0 -- -- 71
2019-09-12 13:00:00 20.3 16 Norte 27 Nordeste 0 -- -- 71
2019-09-12 12:00:00 20.2 13 Norte 22 Norte 0 -- -- 74
2019-09-12 11:00:00 19.2 9 Norte 16 Norte 0 -- -- 79
2019-09-12 10:00:00 18.2 5 Norte 15 Norte 0 -- -- 77
2019-09-12 09:00:00 14.8 10 Sudeste 13 Sudeste 0 -- -- 87
2019-09-12 08:00:00 15.5 5 Este 9 Este 0 -- -- 89
2019-09-12 07:00:00 16.1 4 Este 13 Sudeste 0 -- -- 81
2019-09-12 06:00:00 15.4 8 Sudeste 15 Sudeste 0 -- -- 85
2019-09-12 05:00:00 15 13 Sudeste 15 Sudeste 0 -- -- 83
2019-09-12 04:00:00 16 7 Este 12 Sudeste 0 -- -- 86
2019-09-12 03:00:00 16.8 3 Sudeste 7 Sudeste 0 -- -- 83
2019-09-12 02:00:00 16.8 4 Sudeste 8 Nordeste 0 -- -- 85
2019-09-12 01:00:00 16.8 4 Este 17 Sudeste 0 -- -- 84
2019-09-12 00:00:00 15.2 13 Sudeste 17 Sudeste 0 -- -- 87
2019-09-11 23:00:00 15.2 10 Sudeste 15 Sudeste 0 -- -- 88
2019-09-11 22:00:00 15.6 13 Sudeste 15 Sudeste 0 -- -- 86
2019-09-11 21:00:00 16.9 9 Este 15 Nordeste 0 -- -- 84
2019-09-11 20:00:00 17.8 10 Nordeste 22 Nordeste 0 -- -- 83
2019-09-11 19:00:00 18.5 12 Nordeste 24 Norte 0 -- -- 81
2019-09-11 18:00:00 19.8 15 Norte 27 Norte 0 -- -- 78
2019-09-11 17:00:00 20.6 12 Nordeste 29 Norte 0 -- -- 75
2019-09-11 16:00:00 20.5 16 Nordeste 31 Nordeste 0 -- -- 72
2019-09-11 15:00:00 21.5 18 Norte 34 Norte 0 -- -- 66
2019-09-11 14:00:00 21.5 14 Nordeste 30 Norte 0 -- -- 66
2019-09-11 13:00:00 20.3 13 Nordeste 26 Norte 0 -- -- 74
2019-09-11 12:00:00 20.6 12 Nordeste 28 Nordeste 0 -- -- 67
2019-09-11 11:00:00 19.5 12 Nordeste 24 Nordeste 0 -- -- 71
2019-09-11 10:00:00 18.2 8 Nordeste 18 Este 0 -- -- 82
2019-09-11 09:00:00 17.7 6 Este 15 Este 0 -- -- 82
2019-09-11 08:00:00 16.1 8 Sudeste 14 Nordeste 0 -- -- 85
2019-09-11 07:00:00 15.7 7 Sudeste 15 Este 0 -- -- 89
2019-09-11 06:00:00 16.9 8 Este 15 Este 0 -- -- 90
2019-09-11 05:00:00 16.6 8 Este 14 Este 0 -- -- 89
2019-09-11 04:00:00 15.3 10 Sudeste 15 Sudeste 0 -- -- 89
2019-09-11 03:00:00 15 12 Sudeste 18 Sudeste 0 -- -- 88
2019-09-11 02:00:00 15.8 8 Sudeste 16 Sudeste 0 -- -- 88
2019-09-11 01:00:00 15.7 9 Sudeste 18 Sudeste 0 -- -- 87
2019-09-11 00:00:00 16.4 7 Sudeste 17 Sudeste 0 -- -- 85
2019-09-10 23:00:00 16.4 11 Sudeste 17 Sudeste 0 -- -- 86
2019-09-10 22:00:00 16.5 7 Sudeste 9 Sudeste 0 -- -- 90
2019-09-10 21:00:00 17.9 3 Este 13 Nordeste 0 -- -- 85
2019-09-10 20:00:00 19.1 8 Nordeste 16 Nordeste 0 -- -- 83
2019-09-10 19:00:00 19.9 11 Nordeste 26 Norte 0 -- -- 80
2019-09-10 18:00:00 20.4 14 Norte 25 Norte 0 -- -- 84
2019-09-10 17:00:00 21.8 15 Norte 23 Nordeste 0 -- -- 80
2019-09-10 16:00:00 22 13 Norte 22 Norte 0 -- -- 77
2019-09-10 15:00:00 22.6 8 Norte 18 Norte 0 -- -- 74
2019-09-10 14:00:00 23 9 Noroeste 18 Noroeste 0 -- -- 70
2019-09-10 13:00:00 22 7 Norte 14 Norte 0 -- -- 73
2019-09-10 12:00:00 21.2 9 Noroeste 15 Norte 0 -- -- 76
2019-09-10 11:00:00 20.6 6 Noroeste 14 Noroeste 0 -- -- 79
2019-09-10 10:00:00 19.1 3 Oeste 15 Sudeste 0 -- -- 76
2019-09-10 09:00:00 16.1 8 Sur 13 Sudeste 0 -- -- 75
2019-09-10 08:00:00 13.6 9 Sudeste 14 Sur 0 -- -- 76
2019-09-10 07:00:00 14.8 11 Sur 14 Sur 0 -- -- 77
2019-09-10 06:00:00 14 8 Sur 14 Sur 0 -- -- 75
2019-09-10 05:00:00 14 5 Sur 10 Sudeste 0 -- -- 83
2019-09-10 04:00:00 13.6 6 Sur 9 Sudeste 0 -- -- 89
2019-09-10 03:00:00 13.9 7 Sudeste 10 Sudeste 0 -- -- 90
2019-09-10 02:00:00 14.3 7 Sudeste 11 Sur 0 -- -- 84
2019-09-10 01:00:00 15 8 Sur 13 Sur 0 -- -- 89
2019-09-10 00:00:00 15.2 6 Sur 9 Sur 0 -- -- 92
2019-09-09 23:00:00 15.7 4 Sur 12 Sudeste 0 -- -- 92
2019-09-09 22:00:00 17.4 4 Sur 8 Sur 0 -- -- 90
2019-09-09 21:00:00 17.7 0 Calma 11 Norte 0 -- -- 92
2019-09-09 20:00:00 18.4 6 Norte 15 Norte 0 -- -- 92
2019-09-09 19:00:00 18.9 9 Norte 17 Norte 0 -- -- 87
2019-09-09 18:00:00 19.6 11 Norte 23 Norte 0 -- -- 84
2019-09-09 17:00:00 20 10 Norte 23 Norte 0 -- -- 83
2019-09-09 16:00:00 21.4 11 Norte 23 Norte 0 -- -- 79
2019-09-09 15:00:00 22.7 11 Noroeste 19 Norte 0 -- -- 72
2019-09-09 14:00:00 22.2 10 Noroeste 22 Norte 0 -- -- 72
2019-09-09 13:00:00 21.5 10 Norte 21 Noroeste 0 -- -- 75
2019-09-09 12:00:00 20.8 10 Norte 15 Norte 0 -- -- 80
2019-09-09 11:00:00 19.6 4 Oeste 12 Oeste 0 -- -- 80
2019-09-09 10:00:00 18.4 5 Sudoeste 11 Sur 0 -- -- 87
2019-09-09 09:00:00 15.6 6 Sur 8 Sudeste 0 -- -- 95
2019-09-09 08:00:00 14.8 7 Sur 11 Sur 0 -- -- 96
2019-09-09 07:00:00 14.6 6 Sur 12 Sur 0 -- -- 94
2019-09-09 06:00:00 14.5 6 Sudeste 12 Sur 0 -- -- 92
2019-09-09 05:00:00 15.2 11 Sur 12 Sur 0 -- -- 92
2019-09-09 04:00:00 14.9 7 Sur 12 Sur 0 -- -- 95
2019-09-09 03:00:00 15 10 Sur 13 Sudeste 0 -- -- 94
2019-09-09 02:00:00 14.9 8 Sudeste 12 Sur 0 -- -- 92
2019-09-09 01:00:00 16.1 11 Sur 14 Sudeste 0 -- -- 92
2019-09-09 00:00:00 16.3 7 Sur 13 Sudeste 0 -- -- 91
2019-09-08 23:00:00 15.9 11 Sudeste 16 Sudeste 0 -- -- 90
2019-09-08 22:00:00 17.8 9 Sudeste 14 Este 0 -- -- 87
2019-09-08 21:00:00 18.5 11 Este 18 Nordeste 0 -- -- 89
2019-09-08 20:00:00 19.1 8 Nordeste 16 Nordeste 0 -- -- 90
2019-09-08 19:00:00 19.3 9 Norte 14 Norte 0 -- -- 92
2019-09-08 18:00:00 18.8 6 Norte 15 Norte 0 -- -- 95
2019-09-08 17:00:00 18.7 10 Norte 15 Norte 0 -- -- 94
2019-09-08 16:00:00 19.1 8 Nordeste 15 Norte 0 -- -- 91
2019-09-08 15:00:00 19.8 8 Norte 16 Norte 0 -- -- 87
2019-09-08 14:00:00 20.6 8 Noroeste 14 Norte 0 -- -- 80
2019-09-08 13:00:00 20.9 8 Noroeste 13 Noroeste 0 -- -- 79
2019-09-08 12:00:00 20 8 Norte 16 Norte 0 -- -- 81
2019-09-08 11:00:00 20.3 8 Noroeste 13 Noroeste 0 -- -- 82
2019-09-08 10:00:00 20.9 2 Sudeste 13 Sudeste 0 -- -- 69
2019-09-08 09:00:00 17.6 8 Sudeste 14 Sudeste 0 -- -- 79
2019-09-08 08:00:00 16.5 11 Sudeste 14 Sudeste 0 -- -- 84
2019-09-08 07:00:00 16.4 6 Sudeste 13 Sudeste 0 -- -- 85
2019-09-08 06:00:00 16.1 9 Sudeste 20 Sudeste 0 -- -- 87
2019-09-08 05:00:00 15.6 12 Sudeste 18 Sudeste 0 -- -- 86
2019-09-08 04:00:00 15 12 Sudeste 19 Sudeste 0 -- -- 88
2019-09-08 03:00:00 15 11 Sudeste 21 Sudeste 0 -- -- 86
2019-09-08 02:00:00 15.2 16 Sudeste 18 Sudeste 0 -- -- 86
2019-09-08 01:00:00 16.3 10 Sudeste 15 Sudeste 0 -- -- 85
2019-09-08 00:00:00 16.3 11 Sudeste 14 Sudeste 0 -- -- 85
2019-09-07 23:00:00 16.4 11 Sudeste 15 Sudeste 0 -- -- 85
2019-09-07 22:00:00 16 12 Sudeste 14 Sudeste 0 -- -- 88
2019-09-07 21:00:00 17.8 2 Sudeste 9 Nordeste 0 -- -- 83
2019-09-07 20:00:00 18.3 5 Norte 10 Norte 0 -- -- 81
2019-09-07 19:00:00 18.8 5 Norte 12 Norte 0 -- -- 79
2019-09-07 18:00:00 19.1 6 Norte 15 Norte 0 -- -- 80
2019-09-07 17:00:00 20.6 7 Norte 18 Norte 0 -- -- 76
2019-09-07 16:00:00 21.2 9 Norte 22 Noroeste 0 -- -- 72
2019-09-07 15:00:00 22 10 Norte 21 Noroeste 0 -- -- 67
2019-09-07 14:00:00 21.4 8 Norte 15 Noroeste 0 -- -- 69
2019-09-07 13:00:00 20.5 6 Noroeste 14 Noroeste 0 -- -- 73
2019-09-07 12:00:00 20.3 3 Nordeste 12 Noroeste 0 -- -- 74
2019-09-07 11:00:00 19.2 6 Noroeste 10 Noroeste 0 -- -- 77
2019-09-07 10:00:00 18 4 Norte 6 Noroeste 0 -- -- 83
2019-09-07 09:00:00 17.6 3 Este 8 Este 0 -- -- 89
2019-09-07 08:00:00 16.8 5 Este 12 Sudeste 0 -- -- 91
2019-09-07 07:00:00 16.7 11 Sudeste 15 Sudeste 0 -- -- 86
2019-09-07 06:00:00 16.5 10 Sudeste 15 Sur 0 -- -- 87
2019-09-07 05:00:00 16.5 6 Sur 14 Sur 0 -- -- 88
2019-09-07 04:00:00 16.1 8 Sudeste 18 Sudeste 0 -- -- 91
2019-09-07 03:00:00 15.6 13 Sudeste 17 Sudeste 0 -- -- 91
2019-09-07 02:00:00 16 10 Sudeste 15 Sudeste 0 -- -- 91
2019-09-07 01:00:00 15.6 13 Sudeste 17 Sudeste 0 -- -- 92
2019-09-07 00:00:00 16.3 11 Sudeste 15 Sudeste 0 -- -- 92
2019-09-06 23:00:00 16.5 8 Sudeste 11 Sudeste 0 -- -- 93
2019-09-06 22:00:00 16.9 4 Sudeste 6 Sudeste 0 -- -- 96
2019-09-06 21:00:00 16.9 3 Sudeste 6 Sudeste 0 -- -- 97
2019-09-06 20:00:00 16.8 3 Sudeste 9 Noroeste 0.2 -- -- 97
2019-09-06 19:00:00 17.3 3 Nordeste 9 Noroeste 0.8 -- -- 97
2019-09-06 18:00:00 17.6 6 Norte 12 Norte 0.8 -- -- 97
2019-09-06 17:00:00 17.6 7 Norte 15 Norte 0.4 -- -- 96
2019-09-06 16:00:00 18 6 Norte 17 Norte 0 -- -- 95
2019-09-06 15:00:00 18.5 7 Norte 17 Norte 0 -- -- 93
2019-09-06 14:00:00 19 7 Norte 14 Nordeste 0 -- -- 91
2019-09-06 13:00:00 19.3 7 Noroeste 15 Norte 0 -- -- 90
2019-09-06 12:00:00 19 11 Norte 16 Norte 0 -- -- 87
2019-09-06 11:00:00 19.1 8 Nordeste 14 Nordeste 0 -- -- 84
2019-09-06 10:00:00 18.7 3 Nordeste 10 Nordeste 0 -- -- 91
2019-09-06 09:00:00 18.3 3 Oeste 10 Oeste 0 -- -- 91
2019-09-06 08:00:00 17.1 4 Sudeste 10 Sudeste 0 -- -- 86
2019-09-06 07:00:00 17.2 6 Sudeste 9 Este 0 -- -- 84
2019-09-06 06:00:00 17.8 6 Sudeste 13 Sur 0 -- -- 76
2019-09-06 05:00:00 18.2 9 Sur 17 Sur 0 -- -- 72
2019-09-06 04:00:00 16.9 13 Sur 17 Sur 0 -- -- 76
2019-09-06 03:00:00 16.8 8 Sudeste 13 Sudeste 0 -- -- 83
2019-09-06 02:00:00 17.1 5 Sudeste 13 Sur 0 -- -- 79
2019-09-06 01:00:00 16.4 5 Sudeste 21 Sur 0 -- -- 80
2019-09-06 00:00:00 17.1 12 Sur 15 Sur 0 -- -- 77
2019-09-05 23:00:00 17.3 10 Sur 14 Sur 0 -- -- 80
2019-09-05 22:00:00 17.3 8 Sur 10 Sudeste 0 -- -- 89
2019-09-05 21:00:00 17.6 0 Calma 8 Noroeste 0 -- -- 88
2019-09-05 20:00:00 19.5 5 Noroeste 12 Oeste 0 -- -- 85
2019-09-05 19:00:00 21.2 6 Norte 12 Noroeste 0 -- -- 73
2019-09-05 18:00:00 19.9 6 Norte 15 Noroeste 0 -- -- 81
2019-09-05 17:00:00 19.6 9 Norte 19 Noroeste 0 -- -- 84
2019-09-05 16:00:00 21.5 10 Noroeste 20 Norte 0 -- -- 72
2019-09-05 15:00:00 22.3 9 Norte 17 Norte 0 -- -- 63
2019-09-05 14:00:00 21 7 Norte 15 Noroeste 0 -- -- 69
2019-09-05 13:00:00 20.5 6 Norte 15 Norte 0 -- -- 76
2019-09-05 12:00:00 20.1 9 Norte 17 Norte 0 -- -- 80
2019-09-05 11:00:00 19.6 7 Norte 14 Noroeste 0 -- -- 80
2019-09-05 10:00:00 20.3 3 Sudeste 12 Sudeste 0 -- -- 71
2019-09-05 09:00:00 16.5 10 Sudeste 17 Sudeste 0 -- -- 81
2019-09-05 08:00:00 15.3 13 Sudeste 17 Sudeste 0 -- -- 86
2019-09-05 07:00:00 15.6 15 Sudeste 18 Sudeste 0 -- -- 84
2019-09-05 06:00:00 15.1 12 Sudeste 17 Sudeste 0 -- -- 84
2019-09-05 05:00:00 15.2 10 Sudeste 14 Sudeste 0 -- -- 81
2019-09-05 04:00:00 16.2 9 Sudeste 13 Sudeste 0 -- -- 83
2019-09-05 03:00:00 15.9 10 Sudeste 18 Sudeste 0 -- -- 85
2019-09-05 02:00:00 15.3 12 Sudeste 18 Sudeste 0 -- -- 87
2019-09-05 01:00:00 15 12 Sudeste 15 Sudeste 0 -- -- 81
2019-09-05 00:00:00 15.6 11 Sudeste 15 Sudeste 0 -- -- 77
2019-09-04 23:00:00 16.3 12 Sudeste 15 Sudeste 0 -- -- 82
2019-09-04 22:00:00 17.8 7 Este 11 Este 0 -- -- 82
2019-09-04 21:00:00 18.2 6 Nordeste 11 Nordeste 0 -- -- 81
2019-09-04 20:00:00 18.5 8 Nordeste 14 Norte 0 -- -- 80
2019-09-04 19:00:00 19.4 8 Norte 17 Norte 0 -- -- 73
2019-09-04 18:00:00 20.3 12 Norte 23 Norte 0 -- -- 72
2019-09-04 17:00:00 21.3 13 Norte 22 Norte 0 -- -- 69
2019-09-04 16:00:00 21.9 11 Nordeste 27 Noroeste 0 -- -- 60
2019-09-04 15:00:00 22.9 12 Norte 22 Norte 0 -- -- 59
2019-09-04 14:00:00 21.3 12 Norte 22 Norte 0 -- -- 68
2019-09-04 13:00:00 21.1 12 Norte 24 Norte 0 -- -- 69
2019-09-04 12:00:00 20.7 11 Norte 19 Norte 0 -- -- 65
2019-09-04 11:00:00 20.1 9 Nordeste 18 Nordeste 0 -- -- 61
2019-09-04 10:00:00 19.5 6 Nordeste 13 Nordeste 0 -- -- 69
2019-09-04 09:00:00 16.6 7 Sudeste 18 Sudeste 0 -- -- 83
2019-09-04 08:00:00 14.5 14 Sudeste 18 Sudeste 0 -- -- 82
2019-09-04 07:00:00 14.5 13 Sudeste 18 Sudeste 0 -- -- 80
2019-09-04 06:00:00 14.6 15 Sudeste 19 Sudeste 0 -- -- 81
2019-09-04 05:00:00 14.4 14 Sudeste 17 Sudeste 0 -- -- 82
2019-09-04 04:00:00 14.9 14 Sudeste 20 Sudeste 0 -- -- 85
2019-09-04 03:00:00 14.6 13 Sudeste 16 Sudeste 0 -- -- 80
2019-09-04 02:00:00 15 13 Sudeste 17 Sudeste 0 -- -- 81
2019-09-04 01:00:00 14.7 13 Sudeste 16 Sudeste 0 -- -- 80
2019-09-04 00:00:00 14.8 12 Sudeste 20 Sudeste 0 -- -- 78
2019-09-03 23:00:00 15.1 12 Sudeste 16 Sudeste 0 -- -- 78
2019-09-03 22:00:00 15.3 12 Sudeste 14 Sudeste 0 -- -- 80
2019-09-03 21:00:00 16.3 9 Sudeste 10 Sudeste 0 -- -- 79
2019-09-03 20:00:00 19.7 4 Nordeste 15 Norte 0 -- -- 64
2019-09-03 19:00:00 20.9 10 Noroeste 18 Norte 0 -- -- 72
2019-09-03 18:00:00 20.2 7 Noroeste 18 Norte 0 -- -- 78
2019-09-03 17:00:00 20 8 Norte 15 Noroeste 0 -- -- 79
2019-09-03 16:00:00 19.9 9 Norte 18 Norte 0 -- -- 77
2019-09-03 15:00:00 20.4 9 Norte 21 Norte 0 -- -- 76
2019-09-03 14:00:00 20.9 9 Norte 18 Norte 0 -- -- 71
2019-09-03 13:00:00 20.3 9 Norte 16 Norte 0 -- -- 75
2019-09-03 12:00:00 19.5 8 Norte 15 Norte 0 -- -- 81
2019-09-03 11:00:00 18.9 6 Noroeste 13 Norte 0 -- -- 84
2019-09-03 10:00:00 19.3 5 Noroeste 11 Sudeste 0 -- -- 74
2019-09-03 09:00:00 15.6 9 Sudeste 19 Sudeste 0 -- -- 79
2019-09-03 08:00:00 14 12 Sudeste 20 Sudeste 0 -- -- 85
2019-09-03 07:00:00 14.1 12 Sudeste 16 Sudeste 0 -- -- 85
2019-09-03 06:00:00 14.8 13 Sudeste 14 Sudeste 0 -- -- 84
2019-09-03 05:00:00 17 3 Sudeste 9 Sudeste 0 -- -- 84
2019-09-03 04:00:00 16.8 3 Sudeste 16 Sudeste 0 -- -- 79
2019-09-03 03:00:00 16 6 Sudeste 9 Sudeste 0 -- -- 85
2019-09-03 02:00:00 16.7 5 Sudeste 12 Sudeste 0 -- -- 85
2019-09-03 01:00:00 16.2 8 Sudeste 12 Sudeste 0 -- -- 84
2019-09-03 00:00:00 17.6 0 Calma 17 Sudeste 0 -- -- 82
2019-09-02 23:00:00 15.7 13 Sudeste 15 Sudeste 0 -- -- 85
2019-09-02 22:00:00 16.3 7 Sur 13 Sur 0 -- -- 85
2019-09-02 21:00:00 18.2 2 Nordeste 13 Norte 0 -- -- 83
2019-09-02 20:00:00 18.6 8 Norte 17 Norte 0 -- -- 80
2019-09-02 19:00:00 19.2 12 Norte 23 Nordeste 0 -- -- 75
2019-09-02 18:00:00 20.4 13 Norte 25 Nordeste 0 -- -- 69
2019-09-02 17:00:00 20.7 13 Norte 24 Noroeste 0 -- -- 67
2019-09-02 16:00:00 21.1 14 Norte 28 Norte 0 -- -- 67
2019-09-02 15:00:00 21.7 15 Norte 26 Noroeste 0 -- -- 63
2019-09-02 14:00:00 21.3 15 Norte 26 Noroeste 0 -- -- 61
2019-09-02 13:00:00 20.4 11 Norte 23 Norte 0 -- -- 67
2019-09-02 12:00:00 19.4 12 Norte 25 Norte 0 -- -- 75
2019-09-02 11:00:00 19.1 12 Nordeste 19 Norte 0 -- -- 74
2019-09-02 10:00:00 18.1 7 Nordeste 12 Nordeste 0 -- -- 79
2019-09-02 09:00:00 17.7 5 Este 12 Este 0 -- -- 79
2019-09-02 08:00:00 17 7 Este 13 Nordeste 0 -- -- 84
2019-09-02 07:00:00 17.2 3 Sudeste 11 Nordeste 0 -- -- 85
2019-09-02 06:00:00 17.4 7 Sudeste 13 Este 0 -- -- 79
2019-09-02 05:00:00 17.3 3 Nordeste 15 Sudeste 0 -- -- 83
2019-09-02 04:00:00 17.3 7 Sudeste 14 Este 0 -- -- 81
2019-09-02 03:00:00 17.5 6 Nordeste 13 Nordeste 0 -- -- 88
2019-09-02 02:00:00 17.6 6 Nordeste 12 Nordeste 0 -- -- 88
2019-09-02 01:00:00 17.6 6 Este 14 Este 0 -- -- 81
2019-09-02 00:00:00 17.7 5 Nordeste 13 Este 0 -- -- 87
2019-09-01 23:00:00 17.9 3 Nordeste 15 Sudeste 0 -- -- 85
2019-09-01 22:00:00 17.2 10 Sudeste 13 Sudeste 0 -- -- 82
2019-09-01 21:00:00 17.9 5 Nordeste 15 Nordeste 0 -- -- 85
2019-09-01 20:00:00 18.7 10 Norte 18 Norte 0 -- -- 84
2019-09-01 19:00:00 19.6 12 Norte 22 Norte 0 -- -- 81
2019-09-01 18:00:00 20.8 13 Norte 23 Noroeste 0 -- -- 76
2019-09-01 17:00:00 22.1 14 Norte 26 Noroeste 0 -- -- 71
2019-09-01 16:00:00 21.8 12 Norte 27 Norte 0 -- -- 69
2019-09-01 15:00:00 21.7 15 Norte 30 Nordeste 0 -- -- 72
2019-09-01 14:00:00 21.4 14 Norte 28 Nordeste 0 -- -- 73
2019-09-01 13:00:00 20.8 15 Norte 27 Norte 0 -- -- 74
2019-09-01 12:00:00 20.3 17 Norte 27 Norte 0 -- -- 74
2019-09-01 11:00:00 19.8 10 Norte 22 Nordeste 0 -- -- 77
2019-09-01 10:00:00 18.5 6 Nordeste 15 Nordeste 0 -- -- 83
2019-09-01 09:00:00 17.9 7 Este 25 Sudeste 0 -- -- 82
2019-09-01 08:00:00 15.6 9 Sudeste 19 Sudeste 0 -- -- 83
2019-09-01 07:00:00 15.8 10 Sudeste 18 Este 0 -- -- 84
2019-09-01 06:00:00 16 12 Este 18 Sudeste 0 -- -- 88
2019-09-01 05:00:00 16 12 Sudeste 23 Sudeste 0 -- -- 84
2019-09-01 04:00:00 16.5 11 Sudeste 21 Este 0 -- -- 84
2019-09-01 03:00:00 15.1 9 Sudeste 20 Este 0 -- -- 83
2019-09-01 02:00:00 15.9 9 Sudeste 15 Sudeste 0 -- -- 84
2019-09-01 01:00:00 15.5 10 Sudeste 14 Este 0 -- -- 83
2019-09-01 00:00:00 15.9 9 Sur 11 Sur 0 -- -- 90
2019-08-31 23:00:00 16.9 4 Sur 9 Este 0 -- -- 88
2019-08-31 22:00:00 18 3 Sudeste 13 Este 0 -- -- 86
2019-08-31 21:00:00 18.2 6 Nordeste 16 Nordeste 0 -- -- 87
2019-08-31 20:00:00 19 8 Nordeste 18 Norte 0 -- -- 85
2019-08-31 19:00:00 19.9 10 Norte 18 Norte 0 -- -- 86
2019-08-31 18:00:00 20.2 12 Norte 22 Norte 0 -- -- 83
2019-08-31 17:00:00 21 9 Norte 23 Norte 0 -- -- 82
2019-08-31 16:00:00 22.1 10 Noroeste 20 Noroeste 0 -- -- 73
2019-08-31 15:00:00 20.8 8 Norte 22 Norte 0 -- -- 82
2019-08-31 14:00:00 20.5 11 Norte 23 Norte 0 -- -- 82
2019-08-31 13:00:00 20.9 11 Norte 24 Norte 0 -- -- 77
2019-08-31 12:00:00 20.8 10 Norte 24 Nordeste 0 -- -- 81
2019-08-31 11:00:00 20.5 12 Nordeste 22 Norte 0 -- -- 80
2019-08-31 10:00:00 19.2 4 Sur 14 Sudoeste 0 -- -- 83
2019-08-31 09:00:00 16.9 6 Sur 13 Sur 0 -- -- 91
2019-08-31 08:00:00 15.8 8 Sur 15 Sur 0 -- -- 94
2019-08-31 07:00:00 16.1 4 Sur 21 Sudoeste 0 -- -- 93
2019-08-31 06:00:00 16.1 14 Sudoeste 19 Sudoeste 0 -- -- 94
2019-08-31 05:00:00 16.2 8 Sur 12 Sudoeste 0 -- -- 94
2019-08-31 04:00:00 16.3 8 Sur 10 Sur 0 -- -- 92
2019-08-31 03:00:00 16.9 4 Sur 8 Sudeste 0 -- -- 93
2019-08-31 02:00:00 17 5 Sudeste 10 Sudeste 0 -- -- 91
2019-08-31 01:00:00 17.5 5 Sur 7 Sudoeste 0 -- -- 93
2019-08-31 00:00:00 17.1 2 Sur 5 Sudeste 0 -- -- 92
2019-08-30 23:00:00 18.4 2 Oeste 6 Oeste 0 -- -- 92
2019-08-30 22:00:00 18.6 3 Sudoeste 6 Sudoeste 0 -- -- 90
2019-08-30 21:00:00 18.8 0 Calma 11 Norte 0 -- -- 89
2019-08-30 20:00:00 19.3 6 Norte 14 Nordeste 0 -- -- 88
2019-08-30 19:00:00 20 6 Norte 13 Norte 0 -- -- 87
2019-08-30 18:00:00 20.4 8 Norte 17 Norte 0 -- -- 86
2019-08-30 17:00:00 22.3 10 Norte 22 Norte 0 -- -- 79
2019-08-30 16:00:00 22.7 13 Norte 23 Norte 0 -- -- 77
2019-08-30 15:00:00 22.1 11 Noroeste 19 Noroeste 0 -- -- 78
2019-08-30 14:00:00 21.5 10 Norte 20 Norte 0 -- -- 79
2019-08-30 13:00:00 21.6 10 Norte 18 Norte 0 -- -- 78
2019-08-30 12:00:00 21.4 6 Noroeste 12 Noroeste 0 -- -- 80
2019-08-30 11:00:00 20.2 6 Norte 12 Norte 0 -- -- 84
2019-08-30 10:00:00 18.4 6 Oeste 13 Oeste 0 -- -- 90
2019-08-30 09:00:00 17.1 7 Sudoeste 10 Sudoeste 0 -- -- 92
2019-08-30 08:00:00 14.9 8 Sur 12 Sur 0 -- -- 85
2019-08-30 07:00:00 15 9 Sur 12 Sur 0 -- -- 86
2019-08-30 06:00:00 14.6 6 Sur 8 Sudoeste 0 -- -- 76
2019-08-30 05:00:00 14.5 4 Sudeste 10 Sur 0 -- -- 81
2019-08-30 04:00:00 15.3 9 Sur 11 Sur 0 -- -- 90
2019-08-30 03:00:00 14.4 7 Sur 12 Sudeste 0 -- -- 85
2019-08-30 02:00:00 14.6 8 Sur 11 Sur 0 -- -- 87
2019-08-30 01:00:00 15.4 9 Sur 13 Sur 0 -- -- 90
2019-08-30 00:00:00 15.9 10 Sur 13 Sur 0 -- -- 92
2019-08-29 23:00:00 15.9 8 Sudoeste 10 Sur 0 -- -- 91
2019-08-29 22:00:00 16.5 8 Sur 11 Sur 0 -- -- 94
2019-08-29 21:00:00 17.1 0 Calma 11 Norte 0 -- -- 94
2019-08-29 20:00:00 18.8 8 Norte 14 Norte 0 -- -- 94
2019-08-29 19:00:00 18.9 9 Norte 13 Norte 0 -- -- 92
2019-08-29 18:00:00 19.1 9 Norte 16 Norte 0 -- -- 91
2019-08-29 17:00:00 19.5 10 Norte 18 Norte 0 -- -- 90
2019-08-29 16:00:00 19.6 9 Norte 19 Norte 0 -- -- 90
2019-08-29 15:00:00 20.1 10 Norte 18 Norte 0 -- -- 85
2019-08-29 14:00:00 19.8 10 Norte 18 Nordeste 0 -- -- 88
2019-08-29 13:00:00 19.9 8 Norte 14 Nordeste 0 -- -- 87
2019-08-29 12:00:00 19.9 6 Norte 14 Norte 0 -- -- 90
2019-08-29 11:00:00 19.5 6 Norte 11 Norte 0 -- -- 89
2019-08-29 10:00:00 19.2 3 Norte 7 Sur 0 -- -- 81
2019-08-29 09:00:00 16.8 5 Sur 13 Sur 0 -- -- 87
2019-08-29 08:00:00 15.3 10 Sur 13 Sur 0 -- -- 90
2019-08-29 07:00:00 14.8 9 Sur 13 Sudeste 0 -- -- 91
2019-08-29 06:00:00 14.6 8 Sudeste 17 Sur 0 -- -- 89
2019-08-29 05:00:00 15.3 10 Sur 15 Sudeste 0 -- -- 89
2019-08-29 04:00:00 14.1 9 Sudeste 13 Sudeste 0 -- -- 86
2019-08-29 03:00:00 14.8 9 Sudeste 13 Sudeste 0 -- -- 86
2019-08-29 02:00:00 15.4 9 Sudeste 22 Este 0 -- -- 85
2019-08-29 01:00:00 15.9 10 Sudeste 19 Este 0 -- -- 85
2019-08-29 00:00:00 15 8 Sudeste 12 Sur 0 -- -- 89
2019-08-28 23:00:00 15.6 7 Sudeste 10 Sudeste 0 -- -- 90
2019-08-28 22:00:00 17.1 5 Sur 9 Sudoeste 0 -- -- 90
2019-08-28 21:00:00 18.1 4 Sur 15 Norte 0 -- -- 87
2019-08-28 20:00:00 19.6 9 Norte 15 Norte 0 -- -- 83
2019-08-28 19:00:00 20.8 8 Norte 19 Norte 0 -- -- 83
2019-08-28 18:00:00 20.7 10 Norte 18 Noroeste 0 -- -- 82
2019-08-28 17:00:00 21.9 11 Norte 20 Norte 0 -- -- 77
2019-08-28 16:00:00 21.6 11 Norte 21 Norte 0 -- -- 77
2019-08-28 15:00:00 21.9 12 Norte 25 Norte 0 -- -- 76
2019-08-28 14:00:00 20.7 10 Norte 21 Norte 0 -- -- 82
2019-08-28 13:00:00 20.6 12 Norte 19 Noroeste 0 -- -- 79
2019-08-28 12:00:00 20.1 11 Norte 19 Norte 0 -- -- 82
2019-08-28 11:00:00 20.2 3 Nordeste 10 Norte 0 -- -- 80
2019-08-28 10:00:00 19 4 Noroeste 11 Sur 0 -- -- 81
2019-08-28 09:00:00 16.9 6 Sur 13 Sudeste 0 -- -- 85
2019-08-28 08:00:00 15.2 10 Sur 13 Sur 0 -- -- 87
2019-08-28 07:00:00 15.1 10 Sur 14 Sudeste 0 -- -- 89
2019-08-28 06:00:00 16.1 9 Sudeste 21 Sudeste 0 -- -- 87
2019-08-28 05:00:00 16.4 11 Sudeste 20 Sudeste 0 -- -- 90
2019-08-28 04:00:00 16.2 5 Sudeste 9 Sudeste 0 -- -- 92
2019-08-28 03:00:00 17.3 4 Este 8 Sudeste 0 -- -- 89
2019-08-28 02:00:00 17.9 2 Este 9 Sudeste 0 -- -- 89
2019-08-28 01:00:00 17.5 5 Sudeste 11 Sur 0 -- -- 90
2019-08-28 00:00:00 18.4 3 Sudoeste 9 Sur 0 -- -- 90
2019-08-27 23:00:00 18.9 0 Calma 7 Sur 0 -- -- 89
2019-08-27 22:00:00 19.1 4 Noroeste 7 Noroeste 0 -- -- 91
2019-08-27 21:00:00 19.5 3 Noroeste 8 Noroeste 0 -- -- 88
2019-08-27 20:00:00 20.2 4 Noroeste 10 Norte 0 -- -- 85
2019-08-27 19:00:00 21.8 7 Noroeste 14 Norte 0 -- -- 78
2019-08-27 18:00:00 23.1 9 Norte 18 Noroeste 0 -- -- 71
2019-08-27 17:00:00 22.7 10 Norte 19 Norte 0 -- -- 73
2019-08-27 16:00:00 21.4 9 Norte 22 Norte 0 -- -- 79
2019-08-27 15:00:00 22.4 12 Norte 22 Noroeste 0 -- -- 75
2019-08-27 14:00:00 22 8 Norte 19 Norte 0 -- -- 78
2019-08-27 13:00:00 21.7 12 Norte 19 Norte 0 -- -- 80
2019-08-27 12:00:00 20.8 9 Norte 17 Norte 0 -- -- 83
2019-08-27 11:00:00 19.8 8 Norte 13 Norte 0 -- -- 84
2019-08-27 10:00:00 19.1 5 Norte 8 Noroeste 0 -- -- 86
2019-08-27 09:00:00 17.1 0 Calma 6 Sudoeste 0 -- -- 93
2019-08-27 08:00:00 16.2 3 Sur 8 Sudeste 0 -- -- 94
2019-08-27 07:00:00 14.4 5 Sudeste 13 Sudeste 0 -- -- 85
2019-08-27 06:00:00 15.8 8 Sudeste 10 Sudeste 0 -- -- 91
2019-08-27 05:00:00 15.9 7 Sudeste 9 Sudeste 0 -- -- 90
2019-08-27 04:00:00 16.5 6 Sudeste 9 Sudeste 0 -- -- 94
2019-08-27 03:00:00 16 5 Sudeste 8 Sudeste 0 -- -- 94
2019-08-27 02:00:00 15.3 3 Sur 6 Sudeste 0 -- -- 92
2019-08-27 01:00:00 16.4 3 Sur 10 Sur 0 -- -- 92
2019-08-27 00:00:00 16.8 6 Sur 9 Sur 0 -- -- 92
2019-08-26 23:00:00 16.8 8 Sur 10 Sur 0 -- -- 89
2019-08-26 22:00:00 17.6 6 Sur 9 Sur 0 -- -- 91
2019-08-26 21:00:00 18.8 5 Sudoeste 9 Nordeste 0 -- -- 90
2019-08-26 20:00:00 20.6 6 Norte 14 Oeste 0 -- -- 82
2019-08-26 19:00:00 22.3 6 Norte 16 Norte 0 -- -- 77
2019-08-26 18:00:00 23.2 9 Norte 17 Norte 0 -- -- 76
2019-08-26 17:00:00 24 8 Noroeste 17 Oeste 0 -- -- 75
2019-08-26 16:00:00 23 8 Noroeste 15 Noroeste 0 -- -- 80
2019-08-26 15:00:00 22.6 6 Noroeste 13 Oeste 0 -- -- 83
2019-08-26 14:00:00 21.2 5 Noroeste 12 Noroeste 0 -- -- 89
2019-08-26 13:00:00 21.6 5 Noroeste 9 Noroeste 0 -- -- 93
2019-08-26 12:00:00 19.8 4 Noroeste 8 Oeste 0 -- -- 97
2019-08-26 11:00:00 19.9 2 Noroeste 5 Noroeste 0 -- -- 96
2019-08-26 10:00:00 19.7 3 Noroeste 9 Noroeste 0 -- -- 95
2019-08-26 09:00:00 19.4 3 Oeste 5 Oeste 0 -- -- 95
2019-08-26 08:00:00 18.5 3 Nordeste 7 Sudoeste 0 -- -- 96
2019-08-26 07:00:00 18.9 3 Sudoeste 8 Nordeste 0 -- -- 96
2019-08-26 06:00:00 19.1 6 Nordeste 10 Nordeste 0 -- -- 93
2019-08-26 05:00:00 19.5 4 Nordeste 11 Norte 0 -- -- 90
2019-08-26 04:00:00 20.9 2 Este 9 Noroeste 0 -- -- 77
2019-08-26 03:00:00 20.8 2 Este 9 Sudeste 0 -- -- 60
2019-08-26 02:00:00 18.6 3 Sudoeste 9 Sudeste 0 -- -- 89
2019-08-26 01:00:00 18.9 2 Este 8 Sudeste 0 -- -- 71
2019-08-26 00:00:00 19.5 0 Calma 6 Sur 0 -- -- 71
2019-08-25 23:00:00 20.6 2 Sur 9 Sudeste 0 -- -- 67
2019-08-25 22:00:00 21.5 4 Sudeste 12 Sur 0 -- -- 70
2019-08-25 21:00:00 20.9 3 Sur 8 Sur 0 -- -- 90
2019-08-25 20:00:00 22.6 6 Norte 12 Noroeste 0 -- -- 84
2019-08-25 19:00:00 23.2 6 Oeste 15 Noroeste 0 -- -- 83
2019-08-25 18:00:00 25.1 8 Noroeste 19 Norte 0 -- -- 76
2019-08-25 17:00:00 25.5 6 Noroeste 19 Noroeste 0 -- -- 75
2019-08-25 16:00:00 25.1 10 Noroeste 18 Noroeste 0 -- -- 75
2019-08-25 15:00:00 25.8 7 Noroeste 14 Noroeste 0 -- -- 74
2019-08-25 14:00:00 24.8 6 Noroeste 14 Noroeste 0 -- -- 80
2019-08-25 13:00:00 22.8 8 Norte 15 Norte 0 -- -- 85
2019-08-25 12:00:00 21.4 4 Noroeste 15 Norte 0 -- -- 90
2019-08-25 11:00:00 22 6 Noroeste 11 Noroeste 0 -- -- 83
2019-08-25 10:00:00 21.2 5 Noroeste 18 Nordeste 0 -- -- 84
2019-08-25 09:00:00 19.6 4 Nordeste 10 Sudeste 0 -- -- 89
2019-08-25 08:00:00 18.2 2 Este 12 Noroeste 0 -- -- 94
2019-08-25 07:00:00 18.3 0 Calma 16 Sur 0 -- -- 95
2019-08-25 06:00:00 17.9 0 Calma 10 Sudoeste 0 -- -- 97
2019-08-25 05:00:00 18.2 0 Calma 6 Sur 0 -- -- 96
2019-08-25 04:00:00 19.1 7 Sudoeste 14 Sudeste 0 -- -- 85
2019-08-25 03:00:00 18.7 5 Sur 14 Sudeste 0 -- -- 84
2019-08-25 02:00:00 20.9 7 Sudeste 16 Noroeste 0 -- -- 73
2019-08-25 01:00:00 20.6 4 Sudoeste 12 Sudeste 0 -- -- 75
2019-08-25 00:00:00 23.2 6 Sur 8 Sur 0 -- -- 41
2019-08-24 23:00:00 22.6 4 Sur 10 Este 0 -- -- 47
2019-08-24 22:00:00 21.4 0 Calma 6 Sur 0 -- -- 55
2019-08-24 21:00:00 22.6 3 Sur 6 Sudeste 0 -- -- 71
2019-08-24 20:00:00 23.1 2 Norte 8 Noroeste 0 -- -- 84
2019-08-24 19:00:00 24.4 4 Noroeste 9 Noroeste 0 -- -- 79
2019-08-24 18:00:00 25.4 5 Noroeste 12 Norte 0 -- -- 74
2019-08-24 17:00:00 25.1 6 Noroeste 10 Oeste 0 -- -- 77
2019-08-24 16:00:00 25.8 6 Norte 12 Oeste 0 -- -- 75
2019-08-24 15:00:00 24.1 7 Noroeste 14 Noroeste 0 -- -- 81
2019-08-24 14:00:00 21.4 7 Norte 10 Norte 0 -- -- 93
2019-08-24 13:00:00 20.8 5 Norte 9 Noroeste 0 -- -- 95
2019-08-24 12:00:00 21.7 5 Noroeste 10 Oeste 0 -- -- 87
2019-08-24 11:00:00 20.1 3 Sudoeste 9 Oeste 0 -- -- 91
2019-08-24 10:00:00 19.4 4 Noroeste 10 Sur 0 -- -- 93
2019-08-24 09:00:00 18.4 3 Oeste 8 Sudoeste 0 -- -- 96
2019-08-24 08:00:00 17.7 6 Sudoeste 11 Sudoeste 0 -- -- 96
2019-08-24 07:00:00 16.8 2 Este 10 Este 0 -- -- 96
2019-08-24 06:00:00 17.5 5 Sur 14 Sudoeste 0 -- -- 97
2019-08-24 05:00:00 17.2 5 Sudoeste 10 Sudoeste 0 -- -- 97
2019-08-24 04:00:00 16.6 3 Sudoeste 7 Sudoeste 0 -- -- 90
2019-08-24 03:00:00 17 0 Calma 5 Sudoeste 0 -- -- 77
2019-08-24 02:00:00 17.3 2 Sur 7 Sudeste 0 -- -- 69
2019-08-24 01:00:00 17 0 Calma 6 Sudeste 0 -- -- 75
2019-08-24 00:00:00 16.5 2 Sur 5 Sur 0 -- -- 89
2019-08-23 23:00:00 18.3 4 Sur 5 Sur 0 -- -- 96
2019-08-23 22:00:00 18.7 0 Calma 4 Oeste 0 -- -- 95
2019-08-23 21:00:00 19.4 2 Noroeste 8 Norte 0 -- -- 94
2019-08-23 20:00:00 19.5 6 Norte 12 Norte 0 -- -- 93
2019-08-23 19:00:00 20.2 6 Norte 11 Norte 0 -- -- 90
2019-08-23 18:00:00 20.2 6 Norte 15 Noroeste 0 -- -- 89
2019-08-23 17:00:00 20.7 8 Norte 18 Noroeste 0 -- -- 86
2019-08-23 16:00:00 21.3 9 Noroeste 19 Norte 0 -- -- 84
2019-08-23 15:00:00 22.1 10 Norte 19 Norte 0 -- -- 81
2019-08-23 14:00:00 22.1 12 Norte 23 Norte 0 -- -- 80
2019-08-23 13:00:00 21 12 Nordeste 18 Nordeste 0 -- -- 83
2019-08-23 12:00:00 21.6 10 Noroeste 17 Norte 0 -- -- 80
2019-08-23 11:00:00 20.7 6 Norte 11 Norte 0 -- -- 84
2019-08-23 10:00:00 19.5 5 Oeste 11 Sudoeste 0 -- -- 83
2019-08-23 09:00:00 18.3 4 Sudoeste 9 Sur 0 -- -- 81
2019-08-23 08:00:00 16.4 7 Sur 10 Sudoeste 0 -- -- 74
2019-08-23 07:00:00 16.5 2 Sudeste 9 Sudoeste 0 -- -- 62
2019-08-23 06:00:00 15.6 0 Calma 4 Sudeste 0 -- -- 75
2019-08-23 05:00:00 16.1 3 Sudeste 5 Sudeste 0 -- -- 65
2019-08-23 04:00:00 15.9 0 Calma 4 Sudeste 0 -- -- 69
2019-08-23 03:00:00 16.9 0 Calma 6 Nordeste 0 -- -- 61
2019-08-23 02:00:00 16.5 2 Sur 6 Sudeste 0 -- -- 63
2019-08-23 01:00:00 15.9 2 Sudoeste 5 Sudeste 0 -- -- 69
2019-08-23 00:00:00 16 2 Este 6 Este 0 -- -- 67